Fort Polk, LA

1:43 AM CDT on August 22, 2017 (GMT -0500)
Polk Army Air Field

Weather History for KPOE - April, 2014

Change the Weather History Date:

Monday, April 14, 2014

  Actual Average Record
Temperature  
Mean Temperature 60 °F -  
Max Temperature 75 °F 74 °F 86 °F (2001)
Min Temperature 45 °F 54 °F 37 °F (2008)
Degree Days  
Heating Degree Days 4    
Growing Degree Days 10 (Base 50)    
Moisture  
Dew Point 57 °F    
Average Humidity 90    
Maximum Humidity 100    
Minimum Humidity 74    
Precipitation  
Precipitation 0.75 in - - ()
Sea Level Pressure  
Sea Level Pressure 29.86 in    
Wind  
Wind Speed 12 mph (West)    
Max Wind Speed 31 mph    
Max Gust Speed 43 mph    
Visibility 8 miles    
Events Rain , Thunderstorm    
Averages and records for this station are not official NWS values.
T = Trace of Precipitation, MM = Missing Value Source: NWS Daily Summary

Daily Weather History Graph

Daily Weather History Graph

Search for Another Location

Airport or City:

Trip Planner

Search our weather history database for the weather conditions in past years. The results will help you decide how hot, cold, wet, or windy it might be!

Date:

Astronomy

Apr. 14, 2014 Rise Set
Actual Time 6:46 AM CDT 7:40 PM CDT
Civil Twilight 6:21 AM CDT 8:05 PM CDT
Nautical Twilight 5:52 AM CDT 8:34 PM CDT
Astronomical Twilight 5:21 AM CDT 9:04 PM CDT
Moon 7:20 PM CDT (4/14) 6:15 AM CDT (4/14)
Length of Visible Light 13h 43m
Length of Day
12h 54m
Full, 100% of the Moon is Illuminated
Apr 14
Full
Apr 15
Full
Apr 22
Last Quarter
Apr 29
New
May 6
First Quarter

Hourly Weather History & Observations

Time (CDT) Temp. Windchill Dew Point Humidity Pressure Visibility Wind Dir Wind Speed Gust Speed Precip Events Conditions
12:55 AM 71.1 °F - 70.0 °F 96% 29.77 in 4.0 mi South 11.5 mph - 0.00 in Rain Light Rain
1:53 AM 71.6 °F - 69.8 °F 94% 29.77 in 6.0 mi South 12.7 mph 18.4 mph 0.00 in   Overcast
1:55 AM 72.0 °F - 70.0 °F 93% 29.77 in 6.0 mi South 13.8 mph 19.6 mph 0.00 in   Overcast
2:22 AM 71.6 °F - 69.8 °F 94% 29.76 in 6.0 mi South 11.5 mph 21.9 mph N/A   Overcast
2:55 AM 71.1 °F - 70.0 °F 96% 29.77 in 6.0 mi SSW 5.8 mph - N/A   Overcast
3:55 AM 71.1 °F - 70.0 °F 96% 29.77 in 4.0 mi South 8.1 mph - 0.01 in Rain Light Rain
4:55 AM 70.0 °F - 69.1 °F 97% 29.76 in 7.0 mi South 8.1 mph - 0.01 in   Overcast
5:41 AM 69.8 °F - 69.8 °F 100% 29.76 in 8.0 mi South 8.1 mph - N/A   Overcast
5:55 AM 70.0 °F - 69.1 °F 97% 29.76 in 8.0 mi South 6.9 mph - N/A   Overcast
6:51 AM 69.8 °F - 68.0 °F 94% 29.78 in 8.0 mi South 8.1 mph - N/A   Overcast
6:55 AM 69.1 °F - 68.0 °F 96% 29.78 in 8.0 mi South 5.8 mph - N/A   Overcast
7:23 AM 69.8 °F - 68.0 °F 94% 29.79 in 8.0 mi South 6.9 mph - N/A   Overcast
7:55 AM 70.0 °F - 68.0 °F 93% 29.81 in 8.0 mi South 5.8 mph - N/A   Overcast
8:24 AM 71.6 °F - 68.0 °F 88% 29.82 in 9.0 mi South 9.2 mph - N/A   Overcast
8:55 AM 71.1 °F - 68.0 °F 90% 29.84 in 10.0 mi SSW 5.8 mph - N/A   Overcast
9:40 AM 73.4 °F - 69.8 °F 88% 29.85 in 10.0 mi SSW 9.2 mph - N/A   Overcast
9:55 AM 73.0 °F - 68.0 °F 84% 29.86 in 10.0 mi South 9.2 mph - N/A   Overcast
10:09 AM 73.4 °F - 69.8 °F 88% 29.85 in 10.0 mi SSW 8.1 mph - N/A   Overcast
10:18 AM 73.4 °F - 68.0 °F 83% 29.84 in 10.0 mi SSW 6.9 mph - N/A   Overcast
10:55 AM 75.0 °F - 66.9 °F 76% 29.84 in 10.0 mi SSW 9.2 mph - N/A   Scattered Clouds
11:55 AM 75.9 °F - 66.9 °F 74% 29.82 in 10.0 mi South 9.2 mph 18.4 mph N/A   Clear
12:55 PM 75.9 °F - 66.9 °F 74% 29.79 in 10.0 mi South 10.4 mph - N/A   Partly Cloudy
1:55 PM 73.9 °F - 68.0 °F 82% 29.81 in 10.0 mi SW 5.8 mph - 0.00 in Rain Light Rain
2:07 PM 64.4 °F - 60.8 °F 88% 29.84 in 6.0 mi NW 26.5 mph 42.6 mph 0.02 in Rain Rain
2:12 PM 62.6 °F - 59.0 °F 88% 29.84 in 6.0 mi NW 31.1 mph 42.6 mph 0.02 in Rain Light Rain
2:33 PM 57.2 °F - 55.4 °F 94% 29.85 in 10.0 mi NW 23.0 mph 34.5 mph 0.03 in Rain , Thunderstorm Light Thunderstorms and Rain
2:55 PM 54.0 °F - 52.0 °F 93% 29.87 in 9.0 mi NNW 15.0 mph 24.2 mph 0.04 in Rain , Thunderstorm Light Thunderstorms and Rain
3:13 PM 53.6 °F - 51.8 °F 94% 29.88 in 5.0 mi NNW 10.4 mph - 0.05 in Rain , Thunderstorm Thunderstorms and Rain
3:39 PM 53.6 °F - 51.8 °F 94% 29.92 in 4.0 mi NW 17.3 mph 26.5 mph 0.18 in Rain , Thunderstorm Heavy Thunderstorms and Rain
3:53 PM 51.8 °F - 50.0 °F 94% 29.95 in 2.0 mi NW 17.3 mph 31.1 mph 0.30 in Rain , Thunderstorm Heavy Thunderstorms and Rain
3:55 PM 52.0 °F - 50.0 °F 93% 29.96 in 2.0 mi NW 16.1 mph 31.1 mph 0.31 in Rain , Thunderstorm Heavy Thunderstorms and Rain
4:03 PM 51.8 °F - 48.2 °F 88% 29.93 in 2.0 mi NNW 23.0 mph 31.1 mph 0.07 in Rain , Thunderstorm Heavy Thunderstorms and Rain
4:12 PM 51.8 °F - 48.2 °F 88% 29.93 in 3.0 mi NNW 16.1 mph 31.1 mph 0.12 in Rain , Thunderstorm Heavy Thunderstorms and Rain
4:18 PM 51.8 °F - 48.2 °F 88% 29.94 in 5.0 mi NW 15.0 mph 28.8 mph 0.14 in Rain Rain
4:39 PM 50.0 °F - 48.2 °F 94% 29.90 in 9.0 mi NNW 19.6 mph 29.9 mph 0.18 in Rain Rain
4:55 PM 50.0 °F - 48.0 °F 93% 29.88 in 7.0 mi North 21.9 mph 29.9 mph 0.22 in Rain Rain
5:16 PM 48.2 °F - 46.4 °F 93% 29.82 in 5.0 mi North 18.4 mph 32.2 mph 0.08 in Rain Heavy Rain
5:24 PM 48.2 °F - 46.4 °F 93% 29.84 in 9.0 mi North 16.1 mph 32.2 mph 0.09 in Rain Light Rain
5:36 PM 48.2 °F - 46.4 °F 93% 29.84 in 10.0 mi North 17.3 mph 29.9 mph 0.09 in Rain Light Rain
5:55 PM 48.0 °F - 46.0 °F 93% 29.88 in 10.0 mi NNW 17.3 mph 31.1 mph 0.10 in Rain Light Rain
6:55 PM 46.9 °F - 45.0 °F 93% 29.92 in 10.0 mi NNW 18.4 mph 26.5 mph 0.05 in Rain Light Rain
7:09 PM 48.2 °F - 44.6 °F 87% 29.92 in 10.0 mi NNW 16.1 mph - 0.01 in Rain Light Rain
7:22 PM 46.4 °F 40.1 °F 46.4 °F 100% 29.92 in 10.0 mi NNW 15.0 mph 23.0 mph 0.01 in   Overcast
7:36 PM 48.2 °F - 46.4 °F 93% 29.93 in 10.0 mi NNW 16.1 mph 23.0 mph 0.01 in   Overcast
7:47 PM 46.4 °F 38.1 °F 44.6 °F 93% 29.93 in 10.0 mi NNW 24.2 mph 33.4 mph 0.01 in   Overcast
7:55 PM 46.9 °F - 44.1 °F 90% 29.93 in 10.0 mi North 18.4 mph 33.4 mph 0.01 in   Overcast
8:55 PM 46.9 °F - 44.1 °F 90% 30.01 in 10.0 mi NNW 13.8 mph 24.2 mph 0.00 in   Overcast
9:55 PM 46.9 °F - 39.9 °F 77% 30.04 in 10.0 mi NNW 18.4 mph 29.9 mph N/A   Overcast
10:55 PM 46.0 °F 39.6 °F 39.0 °F 76% 30.07 in 10.0 mi North 15.0 mph 24.2 mph N/A   Overcast
11:55 PM 45.0 °F 38.5 °F 37.9 °F 76% 30.10 in 10.0 mi North 13.8 mph - N/A   Overcast